Regional Weather Roundup
Issued by NWS New Orleans/Baton Rouge, LA

Home | Current Version | Previous Version | Graphics & Text | Print | Product List | Glossary On
Versions: 1 2 3 4 5 6 7 8 9 10 11 12 13 14 15 16 17 18 19 20 21 22 23 24 25 26 27 28 29 30 31 32 33 34 35 36 37 38 39 40 41 42 43 44 45 46 47 48 49 50
501
ASUS44 KLIX 231610
RWRLIX
NEW ORLEANS REGIONAL WEATHER ROUNDUP
NATIONAL WEATHER SERVICE NEW ORLEANS LA
1100 AM CDT TUE SEP 23 2014

NOTE: "FAIR" INDICATES FEW OR NO CLOUDS BELOW 12,000 FEET WITH NO
      SIGNIFICANT WEATHER AND/OR OBSTRUCTIONS TO VISIBILITY.
      SKY/WX - SKY CONDITION AND SIGNIFICANT WEATHER.
      TMP - AIR TEMPERATURE.     DP    - DEWPOINT TEMPERATURE.
      RH  - RELATIVE HUMIDITY.   PRES  - PRESSURE.
      HI  - HEAT INDEX.          WCI   - WIND CHILL INDEX.

*  THESE STATIONS ARE NOT NWS OR FAA STATIONS AND ARE NOT UNDER
   NWS QUALITY CONTROL.

LAZ038-040-048-061>063-065>067-069-231700-
SOUTHEAST LOUISIANA

CITY           SKY/WX    TMP DP  RH WIND       PRES   REMARKS
N.O. AUDUBON   NOT AVBL
N.O. INTL ARPT MOSUNNY   79  58  48 NE13      30.11R
N.O. LAKEFRONT SUNNY     77  59  53 NE12      30.12R
N.O. DOWNTOWN*   N/A     79  54  41 NE9       30.11S
SLIDELL        SUNNY     77  57  50 E5        30.11S
BATON ROUGE    SUNNY     77  56  48 NE6       30.14R
BOOTHVILLE     SUNNY     81  64  56 NE10G18   30.08S
BELLE CHASSE   MOSUNNY   80  58  46 E14       30.10S
BOGALUSA*        N/A     78  56  46 NE6       30.15S
GALLIANO*      NOT AVBL
NEW ROADS*       N/A     76  55  47 E8        30.14S
GONZALES*        N/A     76  59  55 E3        30.12S
HAMMOND*       SUNNY     79  55  44 NE3       30.14S
HOUMA*         SUNNY    N/A N/A N/A NE12      30.10S
PORT FOURCHON* SUNNY     81  64  57 NE15G23   30.11S

$$

MSZ070-080>082-231700-
SOUTHERN MISSISSIPPI

CITY           SKY/WX    TMP DP  RH WIND       PRES   REMARKS
MCCOMB         SUNNY     73  53  49 NE6       30.15S
GULFPORT       SUNNY     78  56  46 N8        30.10S
BILOXI         SUNNY     78  58  50 N7        30.11S
PASCAGOULA     SUNNY     77  57  50 NE9       30.11S
STENNIS ARPT*  SUNNY     77  52  41 NE8       30.12S

$$

COASTAL OBSERVATIONS
LAKE AND NEARSHORE STATIONS

STATION/POSITION TIME  TEMP    WIND        PRES    WAVE
                       AIR SEA DIR/SP/G            HT/PER
                 (UTC) (F)     (DEG/KT/KT) (MB)    (FT/S)
PASCAGOULA       1600   77      20/  8/ 12 1018.7
WAVELAND YACHT   1600   72      30/  6/  8 1019.0
GRAND ISLE       1600   79 80   60/ 12/ 18 1019.0
SOUTHWEST PASS   1600   85 88   50/ 17/ 19 1018.5
NEW CANAL        1600   73 78   60/ 12/ 14 1020.0
SHELL BEACH      1600   75 75   50/ 16/ 17 1019.1

OFFSHORE STATIONS

STATION/POSITION TIME  TEMP    WIND        PRES    WAVE
                       AIR SEA DIR/SP/G            HT/PER
                 (UTC) (F)     (DEG/KT/KT) (MB)    (FT/S)
64 S DAUPHIN ISL 1500   77 83   50/ 17/ 23 1018.3    5/ 6

$$




USA.gov is the U.S. government's official web portal to all federal, state and local government web resources and services.